Showing default

SHIYAN 6 (SY-6), 43711

Orbit data source: Space-Track

SHIYAN 6 (SY-6), 43711 is a payload satellite owned by CNSA (CN) in SSO that was launched on Mon, 19 Nov 2018 UTC via a CHANG ZHENG 2D launch vehicle from the Jiuquan Satellite Launch Center, China (JSC). Payloads include a variety of satellites, spacecraft, and rockets equipped with specific instruments for various scientific and technological missions. These include communications satellites like Starlink; space stations such as the ISS; scientific satellites like the Hubble; Earth observation satellites from companies like Planet Labs, Umbra, and HawkEye 360; GPS; miniature CubeSats for education and research; and military/defense satellites.

Loading next visibility...
SHIYAN 6 (SY-6) details
Identifier
43711, 2018-094B
Orbit
SSO
Last TLE update6 hours ago
Origin
Flag of CNCNSA (CN / PRC)
ManufacturerDFH Shenzhen
MissionOperational Defense Technology
Bus & MotorSW6, AOCS
Mass~1,000 kg wet, ~900 kg dry
Launch date (UTC)
2018-11-19 (6 years ago)
Launch vehicle
CHANG ZHENG 2D
Launch site
Jiuquan Satellite Launch Center, China (JSC)
Object type
Payload
Rocket body
Debris
Shape & HBRBox + 2 Pan, 4 m
Radar Cross Section3.315 m², Large (>1 m²)

Expand to show TLE details & history

TLE from 6 hours ago
0 SHIYAN 6 (SY-6)
1 43711U 18094B   25018.75568957  .00008036  00000-0  34728-3 0  9990
2 43711  97.3831  34.6395 0015419 160.3260 199.8574 15.22632227343013
Epoch: 2025-01-18T18:08Z
Definitive object data (Epoch: 2025-01-18T18:08:11.578Z)
Latitude-0.00012°
Longitude4.19086°
Altitude510.975 km
Speed7.603 km/s
True Right ascension02h 18m 33s
True Declination0° 00' 00"
Sunlit
Object was in daylight at TLE epoch
Visualization TLE readout
Latitude-65.41794°
Longitude168.06699°
Altitude522.202 km
Speed7.601 km/s
Apparent Right ascension12h 59m 25s
Apparent Declination-53° 02' 29"
Sunlit
Object is in daylight
Visualization observer readout
Local Sidereal Time00:50:49
Azimuth185.664° SSW
Elevation-76.793°
Doppler factor1
Orbital elements
Apogee altitude505.463 km
Perigee altitude484.268 km
Semi-major axis6,873.003 km
Eccentricity0.0015419
Inclination97.3831°
RAAN34.6395°
Arg. of periapsis160.326°
True anomaly199.79749°
Mean anomaly199.8574°
Eccentric anomaly199.82743°
Mean motion3.80911 °/min
BSTAR0.00034728
Orbital period94.51 mins
Loading maneuver chart data...
Loading historical data...
Loading historical data...
Loading historical data...
Loading historical data...
Loading historical data...
Loading historical data...
Loading historical data...

SHIYAN 6 (SY-6) Visibility forecast

Observer location: undefined°, undefined

Span
Click to sort rows by Start time (UTC) header in descending order
Start Az.
Max El. time (UTC)
Max El. Az.
Max El.
End time (UTC)
End Az.
6 mins2025-01-19 00:34:44.534Z142.239° SSE2025-01-19 00:37:44.534Z66.884° ENE34.192°2025-01-19 00:40:44.534Z3.817° NNE
5 mins2025-01-19 13:38:44.534Z25.131° NE2025-01-19 13:40:44.534Z120.212° SE42.029°2025-01-19 13:43:44.534Z182.948° SSW
|